Find Starlink 5022

NORAD ID: 53903 Int'l Des: 2022-119 Owner: SPXS Country: US Constellation: starlink operational
LEOCIRCULAR

Live Position

Loading 3D Globe...

About Starlink 5022

Description loading...

Upcoming Passes

Passes for default location (London). Set your location on the main map for personalized predictions.

Altitude History

Loading altitude history...

Two-Line Element Set

1 53903U 22119T 26139.93980638 .00002373 00000-0 16712-3 0 9997
2 53903 53.2181 4.0731 0001366 90.5776 269.5373 15.08837200202448
Epoch: May 19, 2026 • Age: 9 hours

Current Status

Altitude 547.6 km
Velocity 7.59 km/s
Sub-Earth Point -25.39°S, 146.5°W
Launch Date Sep 24, 2022
Age 3.6 years
Type internet

Technical Details

Classification Payload
Mass 305.00 kg
Dry Mass 290.00 kg
Total Mass 305.00 kg
Length 0.20 m
Diameter 2.80 m
Span 9.00 m
Shape Box + pan
Manufacturer SPXS
Bus Type Starlink
Phase Status In Orbit
Owner/State SPXS/US

Most Searched